Weather History for Tampa Macdill AFB, FL

Change the Weather History Date:

Wednesday, January 1, 2014

  Actual Average Record
Temperature  
Mean Temperature 60 °F -  
Max Temperature 62 °F 68 °F 79 °F (2012)
Min Temperature 58 °F 50 °F 41 °F (1998)
Degree Days  
Heating Degree Days 5    
Growing Degree Days 10 (Base 50)    
Moisture  
Dew Point 59 °F    
Average Humidity 95    
Maximum Humidity 100    
Minimum Humidity 72    
Precipitation  
Precipitation 0.11 in - - ()
Sea Level Pressure  
Sea Level Pressure 30.18 in    
Wind  
Wind Speed 12 mph (ENE)    
Max Wind Speed 15 mph    
Max Gust Speed -    
Visibility 10 miles    
Events Rain    
Averages and records for this station are not official NWS values.
T = Trace of Precipitation, MM = Missing Value Source: NWS Daily Summary

Daily Weather History Graph

Daily Weather History Graph

Search for Another Location

Airport:

Trip Planner

Search our weather history database for the weather conditions in past years. The results will help you decide how hot, cold, wet, or windy it might be!

Date:

Astronomy

Jan. 01, 2014 Rise Set
Actual Time 7:21 AM EST 5:46 PM EST
Civil Twilight 6:55 AM EST 6:11 PM EST
Nautical Twilight 6:26 AM EST 6:41 PM EST
Astronomical Twilight 5:57 AM EST 7:09 PM EST
Moon 7:15 AM EST (1/1) 6:23 PM EST (1/1)
Length of Visible Light 11h 16m
Length of Day
10h 25m
New Moon, 0% of the Moon is Illuminated
Jan 1
New Moon
Jan 7
First Quarter
Jan 15
Full
Jan 24
Last Quarter
Jan 30
New

Hourly Weather History & Observations

Time (EST) Temp. Dew Point Humidity Pressure Visibility Wind Dir Wind Speed Gust Speed Precip Events Conditions
12:41 AM 60.8 °F 51.8 °F 72% 30.25 in 10.0 mi ENE 12.7 mph - N/A   Light Drizzle
12:49 AM 60.8 °F 51.8 °F 72% 30.25 in 10.0 mi ENE 13.8 mph - N/A   Mostly Cloudy
12:52 AM 60.8 °F 51.8 °F 72% 30.25 in 10.0 mi East 13.8 mph - N/A Rain Light Rain
12:58 AM 61.0 °F 52.0 °F 72% 30.26 in 10.0 mi ENE 9.2 mph - 0.00 in Rain Light Rain
1:14 AM 59.0 °F 51.8 °F 77% 30.24 in 10.0 mi East 11.5 mph - N/A   Mostly Cloudy
1:58 AM 59.5 °F 53.2 °F 80% 30.24 in 10.0 mi ENE 10.4 mph - 0.00 in   Mostly Cloudy
2:58 AM 59.7 °F 54.3 °F 82% 30.24 in 10.0 mi ENE 11.5 mph - N/A   Scattered Clouds
3:44 AM 59.0 °F 55.4 °F 88% 30.23 in 10.0 mi ENE 10.4 mph - N/A Rain Light Rain
3:58 AM 59.2 °F 55.2 °F 87% 30.24 in 10.0 mi ENE 10.4 mph - 0.00 in Rain Light Rain
4:00 AM 59.0 °F 55.4 °F 88% 30.23 in 10.0 mi ENE 11.5 mph - N/A   Overcast
4:06 AM 59.0 °F 55.4 °F 88% 30.23 in 10.0 mi ENE 10.4 mph - N/A   Light Drizzle
4:13 AM 59.0 °F 55.4 °F 88% 30.22 in 10.0 mi ENE 12.7 mph - N/A   Mostly Cloudy
4:53 AM 59.0 °F 57.2 °F 94% 30.22 in 10.0 mi NE 9.2 mph - N/A   Light Drizzle
4:58 AM 58.5 °F 56.3 °F 93% 30.23 in 10.0 mi ENE 10.4 mph - 0.00 in Rain Light Rain
5:17 AM 59.0 °F 57.2 °F 94% 30.22 in 10.0 mi ENE 13.8 mph - N/A   Mostly Cloudy
5:55 AM 59.0 °F 57.2 °F 94% 30.23 in 10.0 mi ENE 10.4 mph - N/A Rain Light Rain
5:58 AM 59.0 °F 57.2 °F 94% 30.24 in 10.0 mi ENE 9.2 mph - 0.00 in Rain Light Rain
6:04 AM 59.0 °F 57.2 °F 94% 30.23 in 10.0 mi ENE 10.4 mph - N/A   Mostly Cloudy
6:29 AM 59.0 °F 57.2 °F 94% 30.22 in 10.0 mi ENE 9.2 mph - N/A Rain Light Rain
6:44 AM 59.0 °F 57.2 °F 94% 30.22 in 10.0 mi ENE 11.5 mph - N/A   Overcast
6:58 AM 58.5 °F 56.8 °F 94% 30.23 in 10.0 mi ENE 13.8 mph - 0.00 in   Overcast
7:58 AM 58.5 °F 57.2 °F 96% 30.24 in 10.0 mi East 13.8 mph - N/A   Overcast
8:28 AM 59.0 °F 57.2 °F 94% 30.23 in 10.0 mi East 13.8 mph - N/A   Overcast
8:33 AM 59.0 °F 57.2 °F 94% 30.24 in 10.0 mi East 12.7 mph - N/A Rain Light Rain
8:48 AM 59.0 °F 57.2 °F 94% 30.24 in 9.0 mi ENE 13.8 mph - N/A Rain Light Rain
8:58 AM 59.0 °F 57.6 °F 95% 30.25 in 5.0 mi NE 15.0 mph - 0.00 in Rain Light Rain
9:24 AM 59.0 °F 57.2 °F 94% 30.25 in 10.0 mi NNE 5.8 mph - N/A   Overcast
9:29 AM 59.0 °F 57.2 °F 94% 30.25 in 10.0 mi ENE 8.1 mph - N/A   Overcast
9:30 AM 59.0 °F 57.2 °F 94% 30.25 in 10.0 mi ENE 8.1 mph - N/A Rain Light Rain
9:58 AM 58.6 °F 58.3 °F 99% 30.25 in 10.0 mi ENE 15.0 mph - 0.01 in Rain Light Rain
10:58 AM 59.9 °F 59.5 °F 99% 30.25 in 6.0 mi ENE 12.7 mph - 0.05 in Rain Light Rain
11:38 AM 60.8 °F 60.8 °F 100% 30.22 in 9.0 mi NE 10.4 mph - N/A Rain Light Rain
11:58 AM 61.0 °F 61.0 °F 100% 30.22 in 8.0 mi ENE 10.4 mph - 0.03 in Rain Light Rain
12:33 PM 60.8 °F 60.8 °F 100% 30.19 in 10.0 mi NE 11.5 mph - N/A   Light Drizzle
12:36 PM 60.8 °F 60.8 °F 100% 30.18 in 10.0 mi ENE 12.7 mph - N/A   Overcast
12:40 PM 60.8 °F 60.8 °F 100% 30.18 in 10.0 mi NE 12.7 mph - N/A   Light Drizzle
12:51 PM 60.8 °F 60.8 °F 100% 30.18 in 10.0 mi NE 9.2 mph - N/A   Overcast
12:58 PM 61.5 °F 61.5 °F 100% 30.19 in 10.0 mi NE 10.4 mph - 0.02 in   Overcast
1:58 PM 61.9 °F 61.9 °F 100% 30.16 in 10.0 mi ENE 12.7 mph - N/A   Overcast
2:03 PM 62.6 °F 62.6 °F 100% 30.15 in 10.0 mi ENE 13.8 mph - N/A   Overcast
2:05 PM 62.6 °F 62.6 °F 100% 30.15 in 10.0 mi ENE 15.0 mph - N/A Rain Light Rain
2:28 PM 62.6 °F 62.6 °F 100% 30.15 in 10.0 mi ENE 10.4 mph - N/A   Overcast
2:58 PM 62.4 °F 62.4 °F 100% 30.14 in 10.0 mi ENE 15.0 mph - 0.00 in   Overcast
3:33 PM 62.6 °F 62.6 °F 100% 30.13 in 10.0 mi ENE 11.5 mph - N/A   Overcast
3:58 PM 62.6 °F 62.6 °F 100% 30.13 in 10.0 mi NE 10.4 mph - N/A   Overcast
4:23 PM 62.6 °F 62.6 °F 100% 30.12 in 10.0 mi ENE 13.8 mph - N/A   Overcast
4:58 PM 62.6 °F 62.6 °F 100% 30.13 in 10.0 mi ENE 12.7 mph - N/A   Overcast
5:23 PM 62.6 °F 62.6 °F 100% 30.12 in 10.0 mi ENE 15.0 mph - N/A   Overcast
5:58 PM 62.6 °F 62.6 °F 100% 30.12 in 10.0 mi East 11.5 mph - N/A   Overcast
6:03 PM 62.6 °F 62.6 °F 100% 30.11 in 10.0 mi East 10.4 mph - N/A   Overcast
6:28 PM 62.6 °F 62.6 °F 100% 30.11 in 10.0 mi East 13.8 mph - N/A   Overcast
6:38 PM 62.6 °F 62.6 °F 100% 30.11 in 10.0 mi East 12.7 mph - N/A   Overcast
6:43 PM 62.6 °F 62.6 °F 100% 30.11 in 10.0 mi East 13.8 mph - N/A   Overcast
6:58 PM 62.8 °F 62.8 °F 100% 30.13 in 10.0 mi East 12.7 mph - N/A   Overcast
7:53 PM 62.6 °F 62.6 °F 100% 30.11 in 10.0 mi ENE 13.8 mph - N/A   Overcast
7:58 PM 62.8 °F 62.8 °F 100% 30.12 in 10.0 mi ENE 12.7 mph - N/A   Overcast
8:53 PM 62.6 °F 62.6 °F 100% 30.11 in 10.0 mi ENE 9.2 mph - N/A   Overcast
8:58 PM 62.8 °F 62.8 °F 100% 30.12 in 10.0 mi East 9.2 mph - N/A   Overcast
9:23 PM 62.6 °F 62.6 °F 100% 30.10 in 10.0 mi East 12.7 mph - N/A   Overcast
9:58 PM 62.6 °F 62.6 °F 100% 30.11 in 10.0 mi East 8.1 mph - N/A   Overcast
10:23 PM 62.6 °F 62.6 °F 100% 30.10 in 10.0 mi East 10.4 mph - N/A   Overcast
10:58 PM 62.8 °F 62.8 °F 100% 30.10 in 10.0 mi ENE 8.1 mph - N/A   Overcast
11:33 PM 62.6 °F 62.6 °F 100% 30.08 in 10.0 mi East 8.1 mph - N/A   Overcast
11:48 PM 62.6 °F 62.6 °F 100% 30.07 in 10.0 mi East 8.1 mph - N/A   Overcast
11:58 PM 62.8 °F 62.8 °F 100% 30.08 in 10.0 mi East 9.2 mph - N/A   Overcast